SCP
0 0 0 0 0 0 0 0 0 0 0 0 0 0 0 0 0 0 0 0 0 0
0 0 0 0 0 0 0 0 0 0 0 0 0 0 0 0 0 0 0 0 0 0
0 0 0 0 0 0 0 0 0 0 0 0 0 0 0 0 0 0 0 0 0 0
0 0 0 0 0 0 0 0 0 0 0 0 0 0 0 0 0 0 0 0 0 0
0 0 0 0 0 0 0 0 0 0 0 0 0 0 0 0 0 0 0 0 0 0
0 0 0 0 0 0 0 0 0 0 0 0 0 0 0 0 0 0 0 0 0 0
0 0 0 0 0 0 0 0 0 0 0 0 0 0 0 0 0 0 0 0 0 0
0 0 0 0 0 0 0 0 0 0 0 0 0 0 0 0 0 0 0 0 0 0
0 0 0 0 0 0 0 0 0 0 0 0 0 0 0 0 0 0 0 0 0 0
0 0 0 0 0 0 0 0 0 0 0 0 0 0 0 0 0 0 0 0 0 0
0 0 0 0 0 0 0 0 0 0 0 0 0 0 0 0 0 0 0 0 0 0
0 0 0 0 0 0 0 0 0 0 0 0 0 0 0 0 0 0 0 0 0 0
0 0 0 0 0 0 0 0 0 0 0 0 0 0 0 0 0 0 0 0 0 0
0 0 0 0 0 0 0 0 0 0 0 0 0 0 0 0 0 0 0 0 0 0
Wind_Speed_500mb
83 85 86 83 78 75 69 62 57 51 47 45 46 49 52 52 55 58 59 59 60 63
85 88 89 87 82 76 71 66 58 52 49 48 48 50 51 52 53 54 56 57 60 62
84 88 90 88 85 79 74 67 58 54 50 49 49 51 51 50 49 53 53 58 62 64
85 89 93 92 86 80 74 67 61 54 51 50 50 50 49 47 49 52 55 59 64 66
89 91 94 92 86 79 71 64 55 52 51 50 48 47 47 48 50 54 57 60 64 69
95 95 94 92 85 79 70 62 56 54 51 48 45 45 48 51 52 55 58 61 67 71
98 96 90 86 82 74 67 61 57 53 49 45 43 47 47 51 54 56 60 65 69 73
97 92 82 84 81 75 68 62 57 52 47 43 44 45 45 49 52 57 64 67 69 69
95 89 81 84 84 78 70 64 58 50 46 43 44 40 45 50 53 60 64 67 66 66
94 88 82 86 86 78 70 63 54 48 43 42 39 38 45 49 54 59 61 63 66 71
90 84 83 91 88 80 70 58 50 44 44 39 36 39 46 51 53 55 57 60 65 71
86 82 85 94 89 76 67 56 47 52 41 38 33 40 44 46 48 51 56 61 62 65
86 84 91 94 86 75 64 52 60 44 43 36 32 37 39 40 39 49 56 62 71 75
84 85 90 93 85 74 62 63 48 49 38 31 30 31 32 29 31 42 54 68 77 77
Wind_Direction_500mb
236 235 235 236 236 237 239 241 245 254 262 266 272 280 287 295 301 304 306 306 301 298
236 236 235 234 235 236 237 238 244 250 257 264 271 279 287 294 302 302 302 300 298 297
237 235 236 234 234 235 235 237 241 246 254 261 271 280 287 295 297 295 296 297 296 296
237 236 235 234 232 232 232 233 237 244 253 261 270 278 286 290 290 292 295 296 298 298
237 237 234 232 230 229 229 231 237 246 254 264 273 280 285 288 291 293 296 297 298 301
235 236 233 230 226 225 226 229 236 245 255 264 272 281 285 290 291 293 296 300 301 302
235 235 233 228 224 223 224 229 237 247 255 262 273 280 286 288 293 296 300 301 304 306
235 235 231 225 221 220 223 230 238 244 252 262 273 280 286 289 293 298 300 305 308 309
234 233 228 222 218 217 221 228 236 243 251 262 273 282 288 291 297 300 302 308 312 312
234 231 226 219 215 216 221 228 234 242 251 263 274 283 286 292 296 299 307 312 316 324
232 228 222 214 211 213 219 226 234 244 252 264 274 282 286 295 298 303 310 320 327 326
228 223 218 211 209 211 218 225 236 243 254 263 273 280 289 293 298 310 320 326 325 317
224 220 214 208 208 212 217 223 237 243 250 260 269 283 288 295 308 315 322 323 316 319
221 216 208 206 208 212 216 228 230 242 246 255 271 279 289 303 308 317 320 310 315 324
Wind_Speed_850mb
83 85 86 83 78 75 69 62 57 51 47 45 46 49 52 52 55 58 59 59 60 63
85 88 89 87 82 76 71 66 58 52 49 48 48 50 51 52 53 54 56 57 60 62
84 88 90 88 85 79 74 67 58 54 50 49 49 51 51 50 49 53 53 58 62 64
85 89 93 92 86 80 74 67 61 54 51 50 50 50 49 47 49 52 55 59 64 66
89 91 94 92 86 79 71 64 55 52 51 50 48 47 47 48 50 54 57 60 64 69
95 95 94 92 85 79 70 62 56 54 51 48 45 45 48 51 52 55 58 61 67 71
98 96 90 86 82 74 67 61 57 53 49 45 43 47 47 51 54 56 60 65 69 73
97 92 82 84 81 75 68 62 57 52 47 43 44 45 45 49 52 57 64 67 69 69
95 89 81 84 84 78 70 64 58 50 46 43 44 40 45 50 53 60 64 67 66 66
94 88 82 86 86 78 70 63 54 48 43 42 39 38 45 49 54 59 61 63 66 71
90 84 83 91 88 80 70 58 50 44 44 39 36 39 46 51 53 55 57 60 65 71
86 82 85 94 89 76 67 56 47 52 41 38 33 40 44 46 48 51 56 61 62 65
86 84 91 94 86 75 64 52 60 44 43 36 32 37 39 40 39 49 56 62 71 75
84 85 90 93 85 74 62 63 48 49 38 31 30 31 32 29 31 42 54 68 77 77
Wind_Direction_850mb
236 235 235 236 236 237 239 241 245 254 262 266 272 280 287 295 301 304 306 306 301 298
236 236 235 234 235 236 237 238 244 250 257 264 271 279 287 294 302 302 302 300 298 297
237 235 236 234 234 235 235 237 241 246 254 261 271 280 287 295 297 295 296 297 296 296
237 236 235 234 232 232 232 233 237 244 253 261 270 278 286 290 290 292 295 296 298 298
237 237 234 232 230 229 229 231 237 246 254 264 273 280 285 288 291 293 296 297 298 301
235 236 233 230 226 225 226 229 236 245 255 264 272 281 285 290 291 293 296 300 301 302
235 235 233 228 224 223 224 229 237 247 255 262 273 280 286 288 293 296 300 301 304 306
235 235 231 225 221 220 223 230 238 244 252 262 273 280 286 289 293 298 300 305 308 309
234 233 228 222 218 217 221 228 236 243 251 262 273 282 288 291 297 300 302 308 312 312
234 231 226 219 215 216 221 228 234 242 251 263 274 283 286 292 296 299 307 312 316 324
232 228 222 214 211 213 219 226 234 244 252 264 274 282 286 295 298 303 310 320 327 326
228 223 218 211 209 211 218 225 236 243 254 263 273 280 289 293 298 310 320 326 325 317
224 220 214 208 208 212 217 223 237 243 250 260 269 283 288 295 308 315 322 323 316 319
221 216 208 206 208 212 216 228 230 242 246 255 271 279 289 303 308 317 320 310 315 324